Weather History for EBLG - March, 2013

Change the Weather History Date:

Tuesday, March 5, 2013

  Actual Average Record
Temperature  
Mean Temperature 50 °F -  
Max Temperature 62 °F 50 °F 62 °F (2013)
Min Temperature 39 °F 38 °F 24 °F (2006)
Degree Days  
Heating Degree Days 14    
Moisture  
Dew Point 28 °F    
Average Humidity 41    
Maximum Humidity 61    
Minimum Humidity 15    
Precipitation  
Precipitation 0.00 in - - ()
Sea Level Pressure  
Sea Level Pressure 29.79 in    
Wind  
Wind Speed 10 mph ()    
Max Wind Speed 15 mph    
Max Gust Speed 22 mph    
Visibility 14.1 miles    
Events      
Averages and records for this station are not official NWS values.
T = Trace of Precipitation, MM = Missing Value Source: Averaged Metar Reports

Daily Weather History Graph

Daily Weather History Graph

Search for Another Location

Airport or City:

Trip Planner

Search our weather history database for the weather conditions in past years. The results will help you decide how hot, cold, wet, or windy it might be!

Date:

Astronomy

Mar. 05, 2013 Rise Set
Actual Time 7:13 AM CET 6:26 PM CET
Civil Twilight 6:40 AM CET 6:59 PM CET
Nautical Twilight 6:03 AM CET 7:37 PM CET
Astronomical Twilight 5:24 AM CET 8:15 PM CET
Moon 2:38 AM CET (3/5) 11:21 AM CET (3/5)
Length of Visible Light 12h 18m
Length of Day
11h 12m
Last Quarter, 44% of the Moon is Illuminated
Mar 5
Last Quarter
Mar 11
New
Mar 19
First Quarter
Mar 27
Full
Apr 3
Last Quarter

Hourly Weather History & Observations

Time (CET) Temp. Windchill Dew Point Humidity Pressure Visibility Wind Dir Wind Speed Gust Speed Precip Events Conditions
12:20 AM 44.6 °F 38.4 °F 26.6 °F 49% 29.89 in - SE 12.7 mph - N/A   Clear
12:50 AM 42.8 °F 38.0 °F 26.6 °F 53% 29.86 in - SE 8.1 mph - N/A   Clear
1:00 AM 43 °F - 27 °F 41% 29.90 in 12 mi SE 8.9 mph - -   Clear
1:20 AM 42.8 °F 37.5 °F 26.6 °F 53% 29.89 in - SE 9.2 mph - N/A   Clear
1:50 AM 42.8 °F 35.8 °F 26.6 °F 53% 29.86 in - SSE 13.8 mph - N/A   Clear
2:20 AM 41.0 °F 33.1 °F 28.4 °F 61% 29.86 in - SE 15.0 mph - N/A   Clear
2:50 AM 41.0 °F 33.5 °F 26.6 °F 57% 29.86 in - SE 13.8 mph - N/A   Clear
3:20 AM 41.0 °F 33.5 °F 26.6 °F 57% 29.86 in - SSE 13.8 mph - N/A   Clear
3:50 AM 41.0 °F 33.5 °F 26.6 °F 57% 29.86 in - SE 13.8 mph - N/A   Clear
4:00 AM 42 °F - 27 °F 43% 29.88 in 11 mi SE 13.4 mph - -  
4:20 AM 41.0 °F 33.5 °F 26.6 °F 57% 29.83 in - SE 13.8 mph - N/A   Clear
4:50 AM 41.0 °F 33.9 °F 26.6 °F 57% 29.83 in - SE 12.7 mph - N/A   Clear
5:20 AM 41.0 °F 33.9 °F 26.6 °F 57% 29.83 in - SE 12.7 mph - N/A   Clear
5:50 AM 41.0 °F 33.9 °F 26.6 °F 57% 29.83 in - SE 12.7 mph - N/A   Clear
6:20 AM 41.0 °F 34.7 °F 26.6 °F 57% 29.83 in - SE 10.4 mph - N/A   Clear
6:50 AM 41.0 °F 34.7 °F 26.6 °F 57% 29.83 in - SSE 10.4 mph - N/A   Clear
7:00 AM 41 °F - 26 °F 43% 29.86 in 11 mi SSE 11.2 mph - -  
7:20 AM 41.0 °F 35.2 °F 26.6 °F 57% 29.83 in - SSE 9.2 mph - N/A   Clear
7:50 AM 41.0 °F 34.3 °F 26.6 °F 57% 29.83 in - SE 11.5 mph - N/A   Clear
8:20 AM 42.8 °F 36.2 °F 26.6 °F 53% 29.83 in - SE 12.7 mph - N/A   Clear
8:50 AM 44.6 °F 38.4 °F 26.6 °F 49% 29.83 in - SE 12.7 mph - N/A   Clear
9:20 AM 46.4 °F 40.7 °F 26.6 °F 46% 29.83 in - SE 12.7 mph - N/A   Clear
9:50 AM 48.2 °F - 28.4 °F 46% 29.83 in - SE 12.7 mph - N/A   Clear
10:00 AM 48 °F - 28 °F 33% 29.85 in 11 mi SE 11.2 mph - -  
10:20 AM 50.0 °F - 28.4 °F 43% 29.83 in - SSE 10.4 mph - N/A   Clear
10:50 AM 51.8 °F - 28.4 °F 41% 29.83 in - SE 9.2 mph - N/A   Clear
11:20 AM 55.4 °F - 30.2 °F 38% 29.83 in - SSE 6.9 mph - N/A   Clear
11:50 AM 57.2 °F - 32.0 °F 38% 29.83 in - SSE 5.8 mph - N/A   Clear
12:20 PM 59.0 °F - 32.0 °F 36% 29.80 in - SE 6.9 mph - N/A   Clear
12:50 PM 60.8 °F - 32.0 °F 34% 29.80 in - South 9.2 mph - N/A   Clear
1:00 PM 60 °F - 32 °F 23% 29.80 in 11 mi South 8.9 mph - -   Clear
1:20 PM 60.8 °F - 30.2 °F 31% 29.77 in - SSE 8.1 mph - N/A   Clear
1:50 PM 62.6 °F - 26.6 °F 26% 29.77 in - SSE 10.4 mph - N/A   Clear
2:20 PM 62.6 °F - 26.6 °F 26% 29.74 in - SE 11.5 mph - N/A   Clear
2:50 PM 60.8 °F - 26.6 °F 27% 29.74 in - SE 10.4 mph - N/A   Clear
3:20 PM 62.6 °F - 26.6 °F 26% 29.74 in - SSE 6.9 mph - N/A   Clear
3:50 PM 60.8 °F - 26.6 °F 27% 29.74 in - SSE 9.2 mph - N/A   Clear
4:00 PM 61 °F - 26 °F 15% 29.74 in 19 mi SSE 8.9 mph - -   Partly Cloudy
4:20 PM 60.8 °F - 24.8 °F 25% 29.71 in - SSE 8.1 mph - N/A   Clear
4:50 PM 60.8 °F - 26.6 °F 27% 29.71 in - SSE 8.1 mph - N/A   Clear
5:20 PM 59.0 °F - 24.8 °F 27% 29.71 in - SSE 8.1 mph - N/A   Clear
5:50 PM 57.2 °F - 26.6 °F 31% 29.71 in - SSE 8.1 mph - N/A   Clear
6:20 PM 57.2 °F - 28.4 °F 33% 29.71 in - SE 6.9 mph - N/A   Clear
6:50 PM 55.4 °F - 28.4 °F 36% 29.71 in - SSE 6.9 mph - N/A   Clear
7:00 PM 56 °F - 28 °F 22% 29.72 in 19 mi SSE 6.7 mph - -   Scattered Clouds
7:20 PM 55.4 °F - 26.6 °F 33% 29.71 in - SSE 5.8 mph - N/A   Clear
7:50 PM 53.6 °F - 28.4 °F 38% 29.71 in - South 5.8 mph - N/A   Clear
8:20 PM 53.6 °F - 28.4 °F 38% 29.71 in - SSE 5.8 mph - N/A   Clear
8:50 PM 53.6 °F - 28.4 °F 38% 29.71 in - SSE 8.1 mph - N/A   Clear
9:20 PM 50.0 °F - 28.4 °F 43% 29.71 in - SE 5.8 mph 19.6 mph N/A   Clear
9:50 PM 50.0 °F - 28.4 °F 43% 29.71 in - SE 8.1 mph - N/A   Clear
10:00 PM 51 °F - 29 °F 30% 29.73 in 19 mi SE 6.7 mph - -   Scattered Clouds
10:20 PM 51.8 °F - 28.4 °F 41% 29.71 in - Variable 8.1 mph 21.9 mph N/A   Clear
10:50 PM 51.8 °F - 30.2 °F 44% 29.71 in - SE 9.2 mph - N/A   Clear
11:20 PM 51.8 °F - 30.2 °F 44% 29.71 in - SE 9.2 mph - N/A   Clear
11:50 PM 51.8 °F - 30.2 °F 44% 29.71 in - SE 8.1 mph - N/A   Clear